Weather Roundup
Issued by NWS Springfield, MO

Home | Current Version | Previous Version | Text Only | Print | Product List | Glossary On
Versions: 1 2 3 4 5 6 7 8 9 10 11 12 13 14 15 16 17 18 19 20 21 22 23 24 25 26 27 28 29 30 31 32 33 34 35 36 37 38 39 40 41 42 43 44 45 46 47 48 49 50
000
NZUS99 KSGF 011907
HRRSGF

HOURLY WEATHER
NATIONAL WEATHER SERVICE SPRINGFIELD MO
200 PM CDT WED OCT 01 2014

......SGF CWA......

CITY           SKY/WX    TMP DP  RH WIND       PRES   REMARKS
SPRINGFIELD    MOSUNNY   84  65  52 S12       29.81F
JOPLIN         MOSUNNY   84  67  56 S16G26    29.77F
WEST PLAINS    MOSUNNY   83  65  54 S12       29.88F
ROLLA          MOSUNNY   85  61  44 SW14      29.81F
OSAGE BEACH    PTSUNNY   88  64  45 S13       29.79F
BRANSON        PTSUNNY   88  64  45 S8G18     29.85F

......SURROUNDING SGF CWA......

CITY           SKY/WX    TMP DP  RH WIND       PRES   REMARKS
CHANUTE        PTSUNNY   83  69  62 S13       29.73F
PARSONS        LGT RAIN  86  70  58 S12G22    29.73F HX  90
COFFEYVILLE    MOSUNNY   88  70  55 S16G23    29.72F HX  93
EMPORIA        PTSUNNY   80  68  66 S9        29.72F
GROVE OK       MOSUNNY   88  68  51 S14G20    29.79F HX  91
ROGERS AR      CLOUDY    82  66  58 S15       29.84F
SILOAM SPRINGS MOSUNNY   84  66  54 S16G24    29.83F
HARRISON AR    MOSUNNY   85  68  56 S12       29.85F
NEAR YELLVILLE MOSUNNY   88  64  45 S8        29.84F

......KANSAS AND MISSOURI......

CITY           SKY/WX    TMP DP  RH WIND       PRES   REMARKS
KANSAS CTY INT PTSUNNY   74  69  85 SE7       29.75F
DOWNTOWN KC    PTSUNNY   76  69  79 E7        29.74F
COLUMBIA       PTSUNNY   78  63  59 E10       29.80F
SEDALIA        MOSUNNY   79  66  64 E7        29.77F
ST JOSEPH      PTSUNNY   74  67  78 SE6       29.74F
ST LOUIS       MOSUNNY   85  62  46 S10       29.85F
SPIRIT OF STL  SUNNY     85  63  47 SE7       29.81F
KIRKSVILLE     CLOUDY    66  65  96 SE8       29.82F FOG
WICHITA        MOSUNNY   85  64  49 S13       29.69F
TOPEKA         PTSUNNY   83  67  58 VRB3      29.72F
OLATHE         CLOUDY    74  67  78 S7        29.75F

......TENNESSEE......

CITY           SKY/WX    TMP DP  RH WIND       PRES   REMARKS
MEMPHIS        MOSUNNY   89  65  44 S9        29.90F HX  91
NASHVILLE      MOSUNNY   86  55  34 VRB5      29.96F

......ARKANSAS.......

CITY           SKY/WX    TMP DP  RH WIND       PRES   REMARKS
FAYETTEVILLE   PTSUNNY   82  68  62 S16       29.84F
FT SMITH       MOSUNNY   86  68  54 S10       29.80F
LITTLE ROCK    PTSUNNY   85  69  58 S9        29.86F

......OKLAHOMA.......

CITY           SKY/WX    TMP DP  RH WIND       PRES   REMARKS
TULSA          PTSUNNY   91  68  46 S17G26    29.71F HX  95
PONCA CITY     MOSUNNY   88  66  48 S8G18     29.68F HX  90
MCALESTER      MOSUNNY   88  69  53 S13G20    29.79F HX  92
OKLAHOMA CITY  MOSUNNY   91  65  41 S21       29.72F HX  93

......IOWA............

CITY           SKY/WX    TMP DP  RH WIND       PRES   REMARKS
DES MOINES     CLOUDY    70  62  76 S14       29.77F
QUAD CITIES    CLOUDY    71  57  61 S13       29.83

......ILLINOIS........

CITY           SKY/WX    TMP DP  RH WIND       PRES   REMARKS
QUINCY         RAIN      63  60  90 SE6       29.87R FOG
CHICAGO        PTSUNNY   68  50  52 SE12      29.94F



USA.gov is the U.S. government's official web portal to all federal, state and local government web resources and services.